TimeMDT,TemperatureF,Dew PointF,Humidity,Sea Level PressureIn,VisibilityMPH,Wind Direction,Wind SpeedMPH,Gust SpeedMPH,PrecipitationIn,Events,Conditions,WindDirDegrees,DateUTC
12:15 AM,37.4,23.0,56,29.99,10.0,Calm,Calm,-,N/A,,Mostly Cloudy,0,2013-04-23 06:15:00
12:35 AM,37.4,23.0,56,29.98,10.0,SW,3.5,-,N/A,,Mostly Cloudy,220,2013-04-23 06:35:00
12:55 AM,37.4,23.0,56,29.97,10.0,West,5.8,-,N/A,,Clear,270,2013-04-23 06:55:00
1:15 AM,35.6,23.0,60,29.97,10.0,West,6.9,-,N/A,,Clear,260,2013-04-23 07:15:00
1:35 AM,33.8,23.0,65,29.97,10.0,West,6.9,-,N/A,,Clear,270,2013-04-23 07:35:00
1:55 AM,33.8,23.0,65,29.99,10.0,West,11.5,-,N/A,,Clear,260,2013-04-23 07:55:00
2:15 AM,33.8,23.0,65,29.99,10.0,SW,6.9,-,N/A,,Scattered Clouds,230,2013-04-23 08:15:00
2:35 AM,32.0,23.0,69,29.98,10.0,West,5.8,-,N/A,,Mostly Cloudy,260,2013-04-23 08:35:00
2:55 AM,32.0,23.0,69,29.99,10.0,WSW,8.1,-,N/A,,Mostly Cloudy,250,2013-04-23 08:55:00
3:15 AM,32.0,24.8,75,29.99,10.0,West,4.6,-,N/A,,Overcast,280,2013-04-23 09:15:00
3:35 AM,32.0,26.6,80,30.00,10.0,West,13.8,19.6,N/A,,Overcast,270,2013-04-23 09:35:00
3:55 AM,32.0,28.4,87,29.99,4.0,West,11.5,21.9,N/A,Snow,Light Snow,280,2013-04-23 09:55:00
4:15 AM,30.2,28.4,93,30.01,3.0,West,19.6,25.3,N/A,Snow,Light Snow,260,2013-04-23 10:15:00
4:35 AM,28.4,28.4,100,30.00,1.0,West,18.4,24.2,N/A,Snow,Light Snow,260,2013-04-23 10:35:00
4:55 AM,28.4,28.4,100,30.01,1.5,West,18.4,-,N/A,Snow,Light Snow,260,2013-04-23 10:55:00
5:15 AM,28.4,28.4,100,30.01,1.0,West,17.3,24.2,N/A,Snow,Snow,270,2013-04-23 11:15:00
5:35 AM,28.4,28.4,100,30.02,1.0,West,16.1,-,N/A,Snow,Snow,260,2013-04-23 11:35:00
5:55 AM,28.4,28.4,100,30.02,0.8,West,16.1,-,N/A,Snow,Snow,260,2013-04-23 11:55:00
6:15 AM,28.4,26.6,93,30.02,1.2,West,5.8,-,N/A,Snow,Snow,280,2013-04-23 12:15:00
6:35 AM,28.4,26.6,93,30.02,3.0,SE,4.6,-,N/A,Snow,Light Snow,140,2013-04-23 12:35:00
6:55 AM,28.4,26.6,93,30.02,1.0,ESE,3.5,-,N/A,Snow,Light Snow,120,2013-04-23 12:55:00
7:15 AM,28.4,26.6,93,30.02,1.2,Calm,Calm,-,N/A,Snow,Light Snow,0,2013-04-23 13:15:00
7:35 AM,28.4,26.6,93,30.01,10.0,East,3.5,-,N/A,,Mostly Cloudy,100,2013-04-23 13:35:00
7:55 AM,28.4,24.8,86,30.01,10.0,Calm,Calm,-,N/A,,Scattered Clouds,0,2013-04-23 13:55:00
8:15 AM,28.4,24.8,86,30.01,10.0,Calm,Calm,-,N/A,,Mostly Cloudy,0,2013-04-23 14:15:00
8:35 AM,30.2,23.0,75,30.02,10.0,West,8.1,-,N/A,,Mostly Cloudy,270,2013-04-23 14:35:00
8:55 AM,30.2,23.0,75,30.01,10.0,West,9.2,-,N/A,,Scattered Clouds,260,2013-04-23 14:55:00
9:15 AM,30.2,23.0,75,30.01,10.0,West,12.7,-,N/A,,Mostly Cloudy,260,2013-04-23 15:15:00
9:35 AM,30.2,23.0,75,30.02,4.0,West,15.0,18.4,N/A,Snow,Light Snow,260,2013-04-23 15:35:00
9:55 AM,30.2,24.8,80,30.02,3.0,West,12.7,-,N/A,Snow,Light Snow,260,2013-04-23 15:55:00
10:15 AM,28.4,23.0,80,30.03,1.2,West,15.0,-,N/A,Snow,Light Snow,260,2013-04-23 16:15:00
10:35 AM,28.4,23.0,80,30.03,2.5,West,11.5,-,N/A,Snow,Light Snow,280,2013-04-23 16:35:00
10:55 AM,30.2,23.0,75,30.03,10.0,West,6.9,-,N/A,Snow,Light Snow,260,2013-04-23 16:55:00
11:15 AM,30.2,21.2,69,30.04,7.0,West,17.3,-,N/A,Snow,Light Snow,270,2013-04-23 17:15:00
11:35 AM,32.0,19.4,60,30.04,10.0,West,11.5,20.7,N/A,,Mostly Cloudy,280,2013-04-23 17:35:00
11:55 AM,32.0,19.4,60,30.04,10.0,West,12.7,-,N/A,,Mostly Cloudy,260,2013-04-23 17:55:00
12:15 PM,32.0,23.0,69,30.04,5.0,West,8.1,-,N/A,Snow,Light Snow,280,2013-04-23 18:15:00
12:35 PM,32.0,19.4,60,30.04,10.0,WNW,6.9,17.3,N/A,,Mostly Cloudy,300,2013-04-23 18:35:00
12:55 PM,32.0,21.2,64,30.05,2.5,NW,8.1,-,N/A,Snow,Light Snow,310,2013-04-23 18:55:00
1:15 PM,32.0,17.6,55,30.04,10.0,West,11.5,19.6,N/A,,Overcast,270,2013-04-23 19:15:00
1:35 PM,32.0,19.4,60,30.04,10.0,NW,11.5,21.9,N/A,,Mostly Cloudy,310,2013-04-23 19:35:00
5:15 PM,33.8,14.0,44,30.07,10.0,WNW,8.1,-,N/A,,Overcast,300,2013-04-23 23:15:00
5:35 PM,33.8,14.0,44,30.08,10.0,WNW,8.1,-,N/A,,Mostly Cloudy,300,2013-04-23 23:35:00
5:55 PM,33.8,14.0,44,30.09,10.0,NW,8.1,-,N/A,,Mostly Cloudy,320,2013-04-23 23:55:00
6:15 PM,33.8,12.2,41,30.09,10.0,NW,5.8,-,N/A,,Scattered Clouds,310,2013-04-24 00:15:00
6:35 PM,33.8,12.2,41,30.10,10.0,Calm,Calm,-,N/A,,Scattered Clouds,0,2013-04-24 00:35:00
6:55 PM,32.0,10.4,41,30.10,10.0,WNW,4.6,-,N/A,,Scattered Clouds,300,2013-04-24 00:55:00
7:15 PM,32.0,12.2,44,30.10,10.0,Calm,Calm,-,N/A,,Clear,0,2013-04-24 01:15:00
7:35 PM,32.0,8.6,38,30.10,10.0,Calm,Calm,-,N/A,,Clear,0,2013-04-24 01:35:00
7:55 PM,32.0,10.4,41,30.10,10.0,Calm,Calm,-,N/A,,Clear,0,2013-04-24 01:55:00
8:15 PM,30.2,10.4,44,30.10,10.0,Calm,Calm,-,N/A,,Clear,0,2013-04-24 02:15:00
8:35 PM,30.2,12.2,47,30.10,10.0,Calm,Calm,-,N/A,,Clear,0,2013-04-24 02:35:00
8:55 PM,30.2,10.4,44,30.12,10.0,Calm,Calm,-,N/A,,Clear,0,2013-04-24 02:55:00
9:15 PM,30.2,10.4,44,30.14,10.0,Calm,Calm,-,N/A,,Clear,0,2013-04-24 03:15:00
9:35 PM,30.2,8.6,40,30.15,10.0,Calm,Calm,-,N/A,,Clear,0,2013-04-24 03:35:00
9:55 PM,28.4,10.4,47,30.14,10.0,Calm,Calm,-,N/A,,Clear,0,2013-04-24 03:55:00
10:15 PM,28.4,8.6,43,30.15,10.0,Calm,Calm,-,N/A,,Clear,0,2013-04-24 04:15:00
10:35 PM,28.4,10.4,47,30.15,10.0,Calm,Calm,-,N/A,,Clear,0,2013-04-24 04:35:00
10:55 PM,28.4,10.4,47,30.14,10.0,Calm,Calm,-,N/A,,Clear,0,2013-04-24 04:55:00
11:15 PM,28.4,12.2,51,30.16,10.0,Calm,Calm,-,N/A,,Clear,0,2013-04-24 05:15:00
11:35 PM,26.6,12.2,55,30.16,10.0,Calm,Calm,-,N/A,,Clear,0,2013-04-24 05:35:00
11:55 PM,26.6,8.6,47,30.16,10.0,Calm,Calm,-,N/A,,Clear,0,2013-04-24 05:55:00